{"data":{"norad_id":47773,"intl_designator":"2021-017BD","name":"STARLINK-2196","alt_names":[],"object_type":"PAYLOAD","status":"ACTIVE","operator":null,"country":"US","launch_date":"2021-03-04","launch_site_code":"AFETR","launch_vehicle":null,"mission":null,"orbit_class":"UNKNOWN","rcs_meters":null,"size_class":null,"mass_kg":null,"dimensions":null,"purposes":["comms"],"wikipedia_slug":null,"has_3d_model":false,"image_url":null,"decayed_at":null,"tle_current":{"epoch":"2026-09-19T23:20:09.662784Z","epoch_age_seconds":71372,"freshness":"FRESH","line1":"1 47773U 21017BD  26262.97233406  .00042700  00000+0  98751-3 0  9996","line2":"2 47773  53.1597  30.1374 0002337 343.2578  16.8350 15.42089277307463","mean_motion":15.42089277,"eccentricity":0.0002337,"inclination_deg":53.1597,"raan_deg":30.1374,"arg_perigee_deg":343.2578,"mean_anomaly_deg":16.835,"bstar":0.00098751,"rev_number":30746,"period_min":93.379807607598,"perigee_km":438.35071985348,"apogee_km":441.53749096214,"semimajor_km":6818.0811054078,"source":"CELESTRAK","updated_at":"2026-09-20T09:00:38.603448Z"}}}